Regional Weather Roundup
Issued by NWS Northern Indiana

Home | Current Version | Previous Version | Graphics & Text | Print | Product List | Glossary On
Versions: 1 2 3 4 5 6 7 8 9 10 11 12 13 14 15 16 17 18 19 20 21 22 23 24 25 26 27 28 29 30 31 32 33 34 35 36 37 38 39 40 41 42 43 44 45 46 47 48 49 50
000
ASUS43 KIWX 141600
RWRIWX

KIWX WEATHER ROUNDUP
NATIONAL WEATHER SERVICE NORTHERN INDIANA
1100 AM EST THU DEC 14 2017

NOTE: "FAIR" INDICATES FEW OR NO CLOUDS BELOW 12,000 FEET WITH NO
SIGNIFICANT WEATHER AND/OR OBSTRUCTIONS TO VISIBILITY.

* THESE STATIONS ARE NOT UNDER NWS QUALITY CONTROL. THEY ALSO MAY NOT
  REPORT WEATHER SUCH AS PRECIPITATION OR FOG.

INZ001>027-141700-
NORTHERN INDIANA

CITY           SKY/WX    TMP DP  RH WIND       PRES   REMARKS
GARY*          PTSUNNY   23  16  74 W12       30.09R WCI  12
SOUTH BEND     CLOUDY    17  10  74 S5        30.08R WCI  10
ELKHART*       CLOUDY    18   9  68 E5        30.06  WCI  11
GOSHEN         MOSUNNY   15   6  67 CALM      30.06R
MONTICELLO*    CLOUDY    22  11  62 CALM      30.07R
FORT WAYNE     PTSUNNY   20   9  62 CALM      30.07R
PERU/GRISSOM   CLOUDY    21  14  73 E6        30.05R WCI  13

$$
INZ028>050-141700-
CENTRAL INDIANA

CITY           SKY/WX    TMP DP  RH WIND       PRES   REMARKS
LAFAYETTE      CLOUDY    28  12  51 NE9       30.07R WCI  19
KOKOMO*        MOSUNNY   22  16  78 VRB5      30.06R WCI  16
MUNCIE*        PTSUNNY   24  15  68 N6        30.05R WCI  17
INDIANAPOLIS   MOSUNNY   28  13  53 NE13      30.05R WCI  17

$$
MIZ043>046-050>051-056>058-064>065-071>073-077>080-141700-
SOUTHWEST LOWER MICHIGAN

CITY           SKY/WX    TMP DP  RH WIND       PRES   REMARKS
BATTLE CREEK   SUNNY     13   7  77 CALM      30.04R
BENTON HARBOR  CLOUDY    19  10  68 SE6       30.06R WCI  11
COLDWATER*     SUNNY     14   7  73 CALM      30.04R
HILLSDALE*     SUNNY     16   3  57 N3        30.00R
HOLLAND        FLURRIES  15   9  76 S7        30.05R WCI   5
GRAND RAPIDS   FLURRIES  13   9  84 S3        30.03R
KALAMAZOO      CLOUDY    17   8  67 CALM      30.04R
STURGIS*       SUNNY     15   8  71 NE3       30.03R
THREE RIVERS*  FAIR      14  11  88 E5        30.05R WCI   7

$$
OHZ001>008-015>018-024>025-141700-
NORTHWEST OHIO

CITY           SKY/WX    TMP DP  RH WIND       PRES   REMARKS
DEFIANCE       CLOUDY    15   7  70 NW6       30.07R WCI   6
FINDLAY        CLOUDY    18   9  68 NW7       30.04R WCI   9
TOLEDO EXPRESS SUNNY     16   7  67 NW7       30.06R WCI   6
TOLEDO METCALF SUNNY     17   8  67 W7        30.06R WCI   8
LIMA           CLOUDY    19  14  81 N7        30.03R WCI  10

$$
AND FOR LAKE MICHIGAN COASTAL AND OPEN LAKE BUOY OBSERVATIONS

STATION/POSITION TEMP    WIND        PRES    VSBY  WAVE
                 AIR SEA DIR/SP/G                  HT/PER
                 (F)     (DEG/KT/KT) (MB)    (MI)  (FT/S)
CALUMET HARBOR    20     280/  5/  7 1017.8R
MICHIGAN CITY     20     130/  8/ 10   N/A
BURNS HARBOR      22     190/ 10/ 21 1018.6R
SAINT JOSEPH      19      CALM  /  3 1017.3

$$
&&



USA.gov is the U.S. government's official web portal to all federal, state and local government web resources and services.